www.pogodaiklimat.ru

Погода и климат >> Архив погоды >> Португалия >> Санта-Мария


ПОГОДА в Санта-Марии

  • Прогноз погоды в Санта-Марии
  • Монитор погоды в Санта-Марии

АРХИВ ПОГОДЫ в Санта-Марии

Время (UTC), дата Ветер
(напр.,м/с)
 
Видим.   Явления Облачность Т
(С)
Тd
(С)
f
(%)
Тe
(С)
Тes
(С)
Комфортность P
(гПа)
Po
(гПа)
Тmin
(С)
Tmax
(С)
R
(мм)
R24
(мм)
S
(см)
12 12.06 В 6 60 км 9/9 660 м
[Cu Sc]
+21.1 +19 +20 1026.0 1015.3
15 12.06 СВ 6
{9}
>70 км 9/9 660 м
[Cu Sc]
+21.6 +13.5 60 +24 +25 комфорт 1025.0 1014.3
18 12.06 СВ 6 >70 км 9/9 540 м
[Cu Sc]
+20.9 +13.4 62 +23 +24 комфорт 1024.5 1013.7 +23.4
21 12.06 СВ 4
{6}
>70 км 9/9 540 м
[Cu Sc]
+19.0 +14.3 74 +20 +20 1024.6 1013.8
00 13.06 СВ 4 50 км 9/9 570 м
[Cu Sc]
+18.7 +13.1 70 +19 +19 1024.7 1013.9
03 13.06 СВ 3
{6}
40 км 9/9 570 м
[Cu Sc]
+17.3 +17 +17 1023.5 1012.7
06 13.06 В 1 40 км 9/9 570 м
[Cu Sc]
+17.4 +19 +19 1022.8 1012.0 +17.1
09 13.06 В 3 >70 км 9/9 660 м
[Cu Sc]
+19.4 +13.4 68 +21 +21 комфорт 1023.0 1012.3
12 13.06 ЮВ 6
{9}
>70 км 8/5 660 м
[Cu Sc Ci fib]
+22.4 +13.8 58 +26 +29 жарко 1022.7 1012.1
15 13.06 ЮВ 6 >70 км 9/9 800 м
[Cu Sc]
+21.6 +13.0 58 +24 +25 комфорт 1022.0 1011.4
18 13.06 ЮВ 5 >70 км 8/8 600 м
[Cu Sc Ci sp]
+20.9 +14.6 67 +24 +25 комфорт 1021.7 1011.0 +23.5
21 13.06
{6}
30 км н/о +18.2 1022.1 1011.3
00 14.06 30 км н/о +17.2 +14.6 85 1021.9 1011.1
03 14.06 В 4 30 км 9/9 600 м
[]
+17.9 +14.4 80 +18 +18 1020.6 1009.8
06 14.06 ЮВ 4 30 км 9/9 750 м
[Cu Sc]
+17.6 +15.5 87 +17 +17 1020.3 1009.5 +17.0
09 14.06 ЮВ 5 >70 км 9/8 480 м
[Cu Sc Ci fib]
+18.9 +16.1 84 +20 +20 1021.0 1010.3
12 14.06 ЮВ 4-7
{7}
30 км слаб. ливневой дождь 9/9 480 м
[Cu Sc]
+18.1 +17.1 94 +18 +19 1021.4 1010.6 1
15 14.06 30 км осадки на расстоянии н/о +21.0 1020.3 1009.6
18 14.06 50 км н/о +22.0 1019.3 1008.7 +23.4 3
21 14.06 ЮВ 4
{6}
50 км 8/3 800 м
[Cu Sc Ci fib]
+19.1 +14.7 76 +20 +20 1019.7 1008.9
00 15.06 С 3
{5}
н/о н/о +18.3 +15.2 82 +19 +19 1020.0 1009.3
03 15.06 ЮВ 5
{9}
30 км 6/4 450 м
[Cu Sc Ac trans Ci fib]
+18.2 +16.0 87 +18 +18 1018.1 1007.4
06 15.06 ЮВ 7
{11}
30 км 8/4 480 м
[Cu Sc Ac trans Ci fib]
+18.9 +16.8 88 +20 +20 1016.8 1006.1 +17.8 0.1
09 15.06 30 км н/о +18.6 1016.9 1006.2
12 15.06 30 км н/о +22.3 1015.7 1005.2 0.3
15 15.06 ЮВ 11 30 км 9/8 480 м
[Cu Sc Ac trans]
+21.3 +17.0 76 +25 +25 комфорт 1014.7 1004.1
18 15.06 ЮВ 12 25 км {ливн. осадки} 9/9 270 м
[Cu Sc]
+18.8 +18.8 100 +19 +19 1012.8 1002.1 +24.3 1
21 15.06 нст 8 25 км 6/5 360 м
[Cu Sc Ci fib]
+19.1 +18 +18 1012.8 1002.2
00 16.06 С 7 н/о н/о +18.5 -26.3 3 +18 +18 1012.5 1001.9
03 16.06 25 км н/о +18.5 1010.1 999.4
06 16.06
{11}
25 км н/о +19.1 1008.1 997.5 +18.4
09 16.06 Ю 8 25 км 9/3 360 м
[Cu Sc Ac trans Cs]
+19.9 +18 +19 1008.3 997.7
12 16.06 Ю 8 25 км 9/6 300 м
[Cu Sc Ac As]
+20.8 -26.0 3 +19 +20 1007.7 997.2
15 16.06 С 11 н/о н/о +17.7 -28.1 3 +16 +16 1004.6 994.0 10
18 16.06 нст 11-17
{17}
9000 м 10/10 200 м
[]
+18.1 +17 +17 1003.0 992.4 +21.3 12
21 16.06 З 10-15
{15}
20 км {ливн. осадки} 5/5 540 м
[]
+18.7 +17 +17 1003.7 993.1
00 17.06 С 11-17
{17}
н/о {ливн. осадки} н/о +18.2 +13.7 75 +17 +17 1004.1 993.5 2
03 17.06 штиль 0
{22}
50 км {ливн. осадки} ?/? +18.5 +15.3 82 +19 +19 1002.7 992.1
06 17.06 З 13
{21}
20 км в посл. час ливневой дождь 9/1 100 м
[Cu Sc Cs]
+17.4 -28.3 3 +16 +16 1003.9 993.2 +16.3 6
09 17.06 нст 11 15 км в посл. час ливневой дождь 8/8 360 м
[Cu Sc]
+18.8 +17 +17 1006.2 995.7
12 17.06 нст 9 15 км {ливн. осадки} 8/8 240 м
[Cu med, cong Ci fib]
+21.1 +19 +19 1008.2 997.6 1
15 17.06 З 9 15 км 8/8 300 м
[Cu Sc]
+21.8 +19 +19 1009.1 998.6
18 17.06 С 9 н/о н/о +21.1 +17.7 81 +25 +25 комфорт 1010.0 999.4 +22.6 1
21 17.06 СЗ 7-11
{12}
15 км 6/6 240 м
[Cu Sc]
+19.0 +18 +18 1011.6 1001.0
00 18.06 С 6-9
{10}
н/о н/о +18.6 -27.5 3 +18 +18 1013.1 1002.5
03 18.06 нст 4
{7}
15 км 8/8 240 м
[Cu Sc]
+18.1 +18 +18 1013.5 1002.8
06 18.06 нст 3 10 км слаб. морось 10/10 60 м
[Cu Sc]
+17.4 -28.4 3 +17 +17 1014.4 1003.7 +17.0 0.8
09 18.06 С 3
{6}
20 км {морось} 9/9 120 м
[Cu Sc Ci fib]
+17.6 +18 +18 1015.6 1004.9
12 18.06 С 3
{5}
20 км {морось} 9/9 240 м
[Cu Sc Ci fib]
+20.7 +19 +21 1016.6 1005.9 0.1
15 18.06 Ю 4 20 км 9/8 180 м
[Cu Sc Ci fib]
+20.6 +19 +22 1016.9 1006.2
18 18.06 З 2 20 км 9/5 450 м
[Cu Sc Ac trans Ci fib]
+20.1 +16.4 79 +23 +25 комфорт 1016.9 1006.2 +22.3 0.1
21 18.06 штиль 0 30 км 5/5 500 м
[Cu Sc Ac trans]
+18.9 +16.1 84 +20 +20 1017.3 1006.6
00 19.06 штиль 0 30 км 5/5 500 м
[Cu Sc]
+17.8 +15.9 89 +18 +18 1018.1 1007.4
03 19.06 В 2 30 км 3/3 600 м
[Cu Sc Ci fib]
+16.8 +17 +17 1017.5 1006.7
06 19.06 В 2 30 км 4/1 600 м
[Cu Sc Ci fib]
+16.5 +17 +17 1017.7 1006.9 +16.3
09 19.06 ЮВ 1 55 км 8/5 420 м
[Cu Sc Ac trans Ci fib]
+20.3 +20 +22 1018.7 1008.0

 

Местоположение метеостанции Санта-Мария (Португалия): широта 36.97 долгота -25.16 высота над уровнем моря 100 м.

В архиве по умолчанию представлена погода в Санта-Марии за последнюю неделю. Архивные данные за месяц целиком и за предыдущие месяцы, начиная с января 2011 года, Вы можете получить, выбрав интересующий диапазон дат из раскрывающегося списка и нажав кнопку "Ввод!".


*Определитесь, кто Вы:
робот инопланетянин человек

Внимание! Время в таблицах - всемирное. Для получения местного времени необходимо прибавить поправку, которая равна 0 ч.

Смотрите также архив погоды в соседних городах и на ближайших метеорологических станциях:

Погода в Понта-Делгаде (Португалия) (97 км)
Погода в Ангра-ду-Эроижму (Португалия) (261 км)
Погода в Аэропорту Лажеша (Португалия) (263 км)
Погода в Сан-Жоржи (Португалия) (324 км)
Погода в Пико (Португалия) (338 км)
Погода на Острове Грасьоса (Португалия) (344 км)
Погода в Орте (Португалия) (350 км)
Погода в Каштелу-Бранку (Португалия) (357 км)
Погода на Флошише (Португалия) (590 км)
Погода в Фуншале (Португалия) (895 км)

Пояснения к столбцам:

Ветер - указаны скорость ветра в м/с - средняя за 10 мин, порывы в срок и между сроками (в фигурных скобках) и направление, откуда дует ветер: С - северный, СВ - северо-восточный, В - восточный, ЮВ - юго-восточный, Ю - южный, ЮЗ - юго-западный, З - западный, СЗ - северо-западный.
Видимость - горизонтальная дальность видимости в метрах или километрах. При видимости от 1 до 10 км при отсутствии осадков обычно наблюдается дымка, при ухудшении видимости до 1 км и менее - туман. В сухую погоду видимость может ухудшаться дымом, пылью или мглою.
Явления - указаны атмосферные явления, наблюдавшиеся в срок или в последний час перед сроком; фигурными скобками обозначены явления, наблюдавшиеся между сроками (за 1-3 часа до срока); квадратными скобками обозначены град или гололедные отложения с указанием их диаметра в мм.
Облачность - указаны через наклонную черту общая и нижняя облачность в баллах и высота нижней границы облаков в метрах; квадратными скобками обозначены формы облаков: Ci - перистые, Cs - перисто-слоистые, Cc - перисто-кучевые, Ac - высококучевые, As - высокослоистые, Sc - слоисто-кучевые, Ns - слоисто-дождевые, Cu - кучевые, Cb - кучево-дождевые. Подробнее классификацию облаков см. в Атласе облаков (PDF).
T - Температура воздуха - температура, измеренная на высоте 2 м над землей.
Td - Температура точки росы - температура, при понижении до которой содержащийся в воздухе водяной пар достигнет насыщения.
f - Относительная влажность воздуха - влажноcть воздуха, измеренная на высоте 2 м над землей.
Te - Эффективная температура - температура, которую ощущает одетый по сезону человек в тени. Характеристика душности погоды. При расчете учитывается влияние влажности воздуха и скорости ветра на теплоощущения человека.
Tes - Эффективная температура на солнце - температура, которую ощущает человек, с поправкой на солнечный нагрев. Характеристика знойности погоды. Зависит от высоты солнца над горизонтом, облачности и скорости ветра. Ночью, в пасмурную погоду, а также при ветре 12 м/с и более поправка равна нулю.
P - Атмосферное давление - приведенное к уровню моря атмосферное давление.
Po - Атмосферное давление - измеренное на уровне метеостанции атмосферное давление.
Tmin - Минимальная температура - минимум температуры воздуха на высоте 2 м над землей.
Tmax - Максимальная температура - максимум температуры воздуха на высоте 2 м над землей.
R - Количество осадков - Количество выпавших осадков за период времени, мм. При наведении курсора мыши на число - период времени, за который выпало указанное количество осадков.
R24 - Количество осадков - Количество выпавших осадков за 24 часа, мм.
S - Снежный покров - Высота снежного покрова, см. При наведении курсора мыши на число - состояние снежного покрова и степень покрытия местности в баллах.